Find STARLINK-37817

NORAD ID: 799500925 Int'l Des: 2026-130C Constellation: starlink operational

Aktuelle Ansicht

3D-Globus wird geladen...

About STARLINK-37817

STARLINK-37817 (NORAD 799500925) is a starlink constellation satellite launched Jun 4, 2026

Über STARLINK-37817

Beschreibung wird geladen...

Nächste Überflüge

Passes for default location (London). Set your location on the main map for personalized predictions.

Höhenverlauf

Loading altitude history...

Zweizeiliger Elementsatz

1 99999C 2026130C 26163.13937500 .00539420 00000-0 818420-4 0 1638
2 99999 97.2794 182.8591 0011045 272.8618 278.0901 16.04127031 17
Epoch: 12. Juni 2026 • Age: 5 hours

Aktueller Status

Höhe 269.1 km
Geschwindigkeit 7.75 km/s
Subsatellitenpunkt -24.70°S, 19.35°W
Startdatum 4. Juni 2026
Alter 7 days
Typ internet

Most Searched